Wind_Speed
18 20 21 22 23 25 26 27 28 28 29 30 30 31 32 33 34 35 35 36 37 38 38 38 39 39 40 41 41 42 43 44 45 46 48 49 50 51 52 54 55 55 55 56
13 16 16 17 19 20 22 23 24 26 27 27 28 28 29 29 30 31 32 33 34 34 35 36 36 37 37 37 38 40 41 42 43 44 46 47 48 49 51 52 54 53 53 54
11 12 12 13 15 16 18 19 20 22 24 25 26 25 25 26 27 28 29 30 31 32 32 33 33 34 34 35 35 36 38 39 39 41 42 43 45 47 49 50 51 52 53 52
8 9 10 11 12 12 14 15 17 19 20 21 21 22 22 23 24 25 26 27 28 29 29 29 29 30 31 32 33 34 34 35 36 37 38 39 40 42 44 47 48 49 50 50
6 7 8 9 9 10 11 12 13 15 16 17 18 19 19 20 20 21 22 23 24 25 26 26 27 28 29 30 31 31 32 32 32 33 34 35 36 38 39 41 45 46 48 48
4 5 6 7 7 7 8 9 10 12 13 14 15 16 16 17 17 17 18 19 20 22 23 24 25 26 27 28 28 28 29 29 29 29 30 31 32 33 35 37 40 43 44 46
3 3 4 4 5 5 6 7 8 9 10 11 11 12 13 13 13 14 15 16 18 19 20 21 22 23 23 23 23 24 25 25 26 27 27 27 28 28 30 31 33 37 40 42
5 4 3 3 3 3 4 5 5 6 7 8 9 10 11 11 12 12 13 15 16 17 18 19 20 20 20 20 21 21 21 21 22 23 24 24 25 26 27 29 31 33 36 39
6 4 3 2 1 2 2 3 4 5 6 6 7 8 9 9 10 11 13 14 15 17 17 17 17 18 19 19 20 20 21 21 21 21 22 23 23 24 25 26 28 30 32 34
5 4 3 2 1 0 1 2 3 4 6 7 7 8 9 9 11 12 13 14 15 16 16 16 17 17 18 18 19 19 19 20 20 21 21 22 22 23 23 24 25 27 29 30
5 4 4 3 2 1 1 2 3 5 7 9 9 9 11 11 12 13 14 14 15 15 15 16 16 16 17 17 18 18 19 19 19 19 20 21 22 23 23 24 25 25 26 28
5 4 3 3 2 2 3 4 5 7 8 10 11 10 12 12 13 13 13 14 15 15 15 16 17 17 17 17 18 18 18 18 18 18 18 19 20 22 23 24 25 26 27 28
5 4 4 3 3 4 5 6 7 8 9 10 11 12 13 13 13 13 14 14 15 16 16 16 17 17 17 18 18 18 18 19 19 19 20 20 21 22 23 24 25 26 27 28
5 5 5 5 5 5 6 7 8 9 11 11 11 12 13 14 13 13 14 15 15 16 17 17 18 18 18 18 19 20 20 21 21 21 22 22 22 23 23 25 26 27 27 29
6 6 6 6 7 7 7 8 9 10 11 12 11 13 13 14 14 14 14 15 15 16 17 18 18 19 19 20 20 21 22 22 22 23 23 23 24 25 25 26 27 28 29 30
7 7 7 8 8 8 8 9 10 10 11 12 12 12 14 14 15 16 16 17 17 17 18 18 19 20 21 22 23 23 24 24 24 25 25 26 26 27 27 28 28 30 31 32
9 9 8 8 10 9 9 10 11 12 13 13 13 13 15 16 17 17 18 18 18 19 19 20 21 22 23 24 24 25 25 26 26 26 27 27 27 28 29 29 30 32 33 35
10 11 11 10 11 10 11 12 13 13 14 15 16 17 18 18 18 18 19 19 20 20 21 22 23 24 25 26 26 27 28 29 29 29 29 29 29 30 30 31 32 33 35 36
12 13 13 13 12 11 12 14 15 15 16 17 17 18 18 18 19 19 20 21 21 22 23 24 25 26 26 27 28 29 30 31 32 31 31 31 31 32 32 33 34 35 37 38
14 15 15 15 15 15 15 16 16 17 17 18 18 19 19 20 20 20 21 22 23 24 25 26 27 28 29 29 30 31 32 33 33 33 33 34 34 34 34 35 36 37 37 38
17 17 17 18 18 17 18 19 19 19 19 19 19 19 20 21 22 22 23 24 24 25 26 28 29 30 30 31 32 33 33 34 34 34 35 35 36 37 37 38 38 38 39 39
19 20 20 20 21 21 21 21 21 21 20 20 21 22 22 23 23 24 24 25 26 27 28 29 30 31 32 33 33 34 35 35 36 36 37 37 38 38 39 39 40 40 40 41
22 22 23 23 23 24 24 23 23 24 23 23 24 24 24 25 25 25 26 26 27 28 29 31 32 33 34 34 35 36 37 37 38 38 39 39 40 40 41 41 42 42 42 42
25 26 26 25 24 26 26 26 26 27 26 26 26 27 27 27 27 27 28 29 29 30 32 33 34 35 35 36 37 38 39 39 40 41 41 41 42 42 43 43 43 42 42 43
28 28 28 27 27 28 27 28 28 29 29 28 29 29 29 29 29 30 30 31 32 33 34 35 36 36 37 38 39 39 40 41 42 42 42 43 44 44 44 44 43 43 43 44
28 30 31 29 29 30 28 29 30 31 31 31 31 31 31 32 32 32 33 33 34 35 36 37 37 38 39 40 40 41 41 42 42 43 44 45 45 45 44 43 43 44 45 45
Wind_Direction
209 214 221 227 233 237 240 243 247 251 254 255 257 259 260 262 263 265 266 268 268 269 270 271 271 272 272 272 271 269 268 268 266 265 263 262 261 260 258 258 257 255 255 254
204 212 220 227 231 237 240 245 249 252 254 256 258 260 262 264 266 267 268 270 271 271 272 273 274 274 274 273 273 271 270 269 267 266 264 263 261 260 259 257 256 255 255 254
201 210 217 224 231 236 242 246 250 253 254 257 260 261 264 265 267 268 270 272 273 274 276 276 276 276 276 275 275 274 272 271 269 267 265 263 262 261 260 258 256 256 255 253
196 206 217 224 231 239 244 246 251 255 256 259 263 265 266 268 269 270 273 275 276 278 279 279 279 278 278 278 278 277 275 274 273 270 267 266 265 263 262 258 256 255 253 253
199 210 216 224 234 240 244 247 252 255 257 260 264 266 270 272 275 276 277 279 280 280 280 281 281 281 282 283 283 280 277 276 275 274 272 268 266 264 262 260 256 254 253 252
189 202 215 222 228 234 237 243 249 254 258 261 265 270 274 277 280 279 280 282 284 286 284 284 285 285 286 286 285 284 280 277 277 276 274 271 270 268 265 262 258 256 254 252
155 178 196 211 222 226 230 243 252 260 264 267 269 273 278 282 285 287 286 287 289 291 290 289 289 291 291 290 290 289 286 282 279 278 276 274 273 271 268 263 259 258 255 254
114 124 140 169 196 215 237 251 263 272 273 275 277 279 281 283 287 291 292 294 296 297 297 296 296 295 295 294 294 293 292 289 285 283 280 277 274 272 270 267 264 262 259 257
96 97 104 119 164 220 236 259 271 282 288 291 286 286 288 288 292 297 298 301 302 303 303 302 301 299 299 298 297 296 293 291 289 286 283 281 280 277 272 269 267 266 264 260
85 85 86 93 92 322 281 283 287 297 309 310 303 300 303 302 303 306 306 306 305 306 306 306 305 305 305 304 303 301 299 296 293 289 286 283 281 280 275 272 270 269 267 264
69 75 76 77 61 31 357 323 311 311 314 316 315 313 313 312 309 309 310 310 311 311 311 311 310 309 309 310 310 309 307 303 298 294 291 287 284 283 280 277 274 274 270 266
62 62 59 48 29 354 333 324 318 315 317 317 319 322 319 320 318 316 315 316 317 317 318 317 315 315 314 313 313 313 313 310 304 302 298 294 291 288 285 281 279 279 276 273
39 35 27 12 355 336 323 317 315 315 318 319 321 324 323 324 323 320 318 318 320 321 322 322 320 318 317 316 316 315 313 311 309 307 304 299 295 291 287 285 284 282 280 277
18 8 356 346 339 336 329 319 316 317 319 321 325 327 325 327 328 325 323 322 321 322 323 325 326 325 322 319 319 318 316 313 311 309 307 303 299 296 292 289 287 285 283 280
3 351 338 330 324 324 322 316 314 315 316 318 321 323 323 326 327 326 325 325 324 324 324 325 327 327 325 324 323 322 320 318 315 312 310 306 302 300 297 293 290 287 285 283
350 344 336 329 323 320 315 310 309 313 316 318 319 321 318 322 323 323 323 323 324 324 326 326 326 326 325 324 323 322 322 319 317 314 311 307 303 300 298 295 291 290 288 286
337 336 336 332 325 325 321 314 312 315 316 318 320 318 316 317 317 318 319 321 321 321 322 323 323 323 323 323 321 321 321 319 318 316 313 310 306 302 300 298 295 292 291 290
330 326 326 327 322 324 324 318 315 314 315 314 315 314 313 312 313 315 316 317 317 317 317 317 318 318 318 318 319 320 320 319 317 315 312 310 308 305 303 301 298 296 294 293
321 320 319 317 317 321 318 316 314 313 312 310 311 311 312 313 313 313 312 313 314 314 314 316 317 318 317 317 317 317 318 318 317 315 313 311 309 307 305 304 302 300 297 295
310 311 311 311 312 316 314 312 311 310 310 309 311 311 312 313 313 313 312 312 312 312 313 314 315 315 315 315 315 315 315 316 316 315 313 312 310 308 307 306 304 303 301 300
302 303 304 305 306 309 308 308 307 308 308 308 309 310 311 311 312 313 313 313 313 314 315 314 314 314 314 314 314 314 314 314 315 314 313 312 311 309 308 307 306 305 303 302
298 298 298 299 302 303 301 302 302 303 304 305 306 308 309 309 309 311 312 313 313 314 314 315 315 314 314 314 314 314 313 313 313 313 313 313 312 311 309 308 307 305 304 303
295 296 297 298 298 297 297 298 299 299 300 301 302 303 305 305 306 307 309 311 312 312 313 313 314 314 314 314 313 313 312 312 312 312 312 312 312 311 310 309 307 306 304 304
291 292 295 297 296 294 295 296 296 297 299 299 299 300 301 301 302 303 305 307 308 310 311 311 312 312 313 312 312 312 311 311 311 311 311 312 312 311 311 309 308 307 306 306
290 291 292 293 293 293 295 295 294 294 296 296 297 297 298 298 299 301 303 305 307 308 310 310 311 311 312 312 312 311 311 311 311 311 311 311 312 311 311 310 309 308 308 308
288 287 287 289 290 292 294 293 292 292 292 293 294 295 296 297 297 299 301 303 305 307 308 309 310 310 311 311 311 310 310 311 311 311 311 312 312 311 310 310 309 309 310 310
Height
5671 5677 5680 5684 5687 5691 5694 5696 5699 5702 5704 5706 5708 5710 5711 5712 5713 5714 5714 5714 5714 5715 5715 5714 5714 5713 5712 5711 5710 5710 5709 5708 5709 5709 5710 5711 5713 5714 5716 5718 5721 5723 5727 5730
5672 5675 5679 5682 5685 5687 5690 5693 5695 5698 5699 5701 5703 5704 5705 5706 5706 5707 5707 5707 5707 5707 5707 5706 5705 5704 5703 5702 5700 5699 5698 5697 5697 5697 5698 5699 5700 5701 5703 5705 5708 5710 5713 5717
5672 5676 5678 5680 5683 5685 5687 5690 5692 5693 5695 5696 5698 5700 5700 5700 5701 5701 5701 5701 5701 5700 5699 5698 5697 5696 5695 5693 5692 5690 5688 5687 5687 5686 5686 5687 5688 5689 5691 5692 5694 5697 5700 5703
5672 5675 5677 5679 5682 5683 5685 5687 5689 5690 5691 5693 5694 5695 5696 5695 5696 5696 5695 5695 5694 5693 5692 5691 5690 5688 5687 5685 5683 5681 5680 5678 5677 5677 5676 5676 5677 5678 5678 5679 5681 5684 5687 5690
5673 5675 5677 5679 5681 5682 5684 5685 5686 5687 5688 5690 5690 5691 5692 5691 5691 5691 5690 5690 5689 5688 5686 5685 5683 5681 5680 5678 5675 5673 5672 5670 5669 5668 5667 5667 5667 5667 5667 5668 5670 5672 5675 5679
5675 5676 5677 5679 5680 5681 5682 5684 5685 5685 5686 5688 5688 5688 5688 5688 5687 5687 5686 5685 5684 5682 5681 5679 5677 5675 5673 5671 5669 5666 5665 5663 5662 5660 5659 5659 5658 5657 5657 5658 5660 5662 5664 5667
5676 5677 5678 5679 5680 5681 5682 5683 5684 5684 5684 5685 5685 5685 5686 5685 5684 5683 5682 5681 5680 5678 5676 5674 5672 5670 5667 5665 5663 5660 5658 5656 5655 5654 5653 5652 5651 5650 5649 5650 5651 5653 5654 5657
5677 5678 5679 5679 5680 5681 5681 5683 5684 5684 5683 5683 5683 5682 5684 5682 5681 5680 5679 5678 5676 5674 5672 5670 5667 5665 5663 5660 5658 5655 5653 5651 5649 5648 5646 5645 5644 5643 5643 5643 5644 5645 5646 5647
5679 5680 5680 5680 5681 5682 5682 5682 5683 5683 5682 5682 5681 5681 5681 5679 5678 5677 5676 5674 5673 5670 5668 5666 5663 5661 5658 5656 5653 5651 5648 5646 5644 5642 5641 5640 5638 5637 5637 5636 5637 5637 5638 5638
5681 5682 5682 5682 5682 5682 5682 5682 5682 5682 5681 5680 5680 5679 5678 5677 5676 5675 5673 5671 5669 5667 5664 5662 5660 5657 5654 5652 5649 5646 5643 5641 5639 5637 5636 5634 5633 5632 5631 5630 5630 5630 5630 5630
5683 5683 5683 5683 5683 5682 5682 5682 5681 5681 5680 5679 5678 5680 5676 5674 5673 5671 5670 5668 5666 5663 5661 5659 5656 5653 5651 5648 5645 5642 5639 5637 5634 5632 5630 5629 5628 5626 5625 5624 5624 5623 5623 5623
5684 5684 5684 5684 5683 5682 5682 5681 5681 5681 5679 5677 5676 5679 5674 5672 5670 5668 5666 5664 5662 5660 5658 5655 5652 5650 5647 5644 5641 5638 5635 5632 5630 5628 5626 5624 5622 5621 5619 5618 5617 5617 5616 5616
5686 5686 5685 5684 5685 5684 5682 5681 5680 5679 5678 5676 5675 5677 5672 5670 5668 5666 5664 5662 5660 5657 5655 5652 5649 5646 5643 5640 5637 5635 5632 5629 5626 5624 5621 5619 5617 5615 5613 5612 5611 5610 5609 5608
5686 5686 5686 5685 5683 5682 5681 5680 5679 5678 5676 5675 5674 5673 5670 5667 5666 5664 5661 5659 5657 5654 5652 5649 5646 5642 5639 5636 5634 5631 5628 5625 5622 5619 5616 5614 5611 5609 5607 5606 5604 5603 5601 5600
5687 5687 5685 5684 5683 5682 5681 5679 5678 5676 5675 5674 5673 5670 5668 5665 5663 5661 5659 5657 5654 5652 5649 5646 5643 5639 5636 5633 5630 5627 5624 5620 5617 5614 5611 5608 5605 5603 5601 5599 5597 5595 5593 5592
5687 5686 5685 5684 5682 5681 5680 5678 5676 5675 5673 5671 5670 5668 5666 5663 5661 5659 5657 5654 5651 5649 5646 5643 5639 5636 5633 5630 5626 5623 5619 5615 5612 5608 5605 5602 5599 5596 5594 5591 5589 5587 5585 5583
5687 5686 5685 5684 5681 5680 5679 5677 5675 5673 5671 5669 5667 5667 5663 5661 5659 5656 5654 5651 5648 5645 5642 5639 5636 5633 5629 5626 5622 5618 5614 5610 5606 5603 5599 5596 5592 5589 5586 5583 5580 5578 5575 5573
5686 5684 5683 5682 5681 5679 5680 5675 5673 5671 5669 5667 5665 5663 5660 5658 5655 5653 5650 5648 5645 5642 5639 5636 5632 5629 5625 5621 5617 5613 5609 5605 5601 5597 5593 5589 5585 5581 5578 5575 5571 5569 5566 5562
5684 5683 5681 5679 5678 5677 5677 5673 5670 5668 5667 5664 5662 5659 5657 5654 5652 5650 5646 5643 5641 5638 5634 5631 5628 5624 5620 5616 5612 5608 5603 5599 5594 5590 5586 5582 5578 5574 5570 5566 5562 5558 5555 5551
5682 5681 5679 5677 5674 5674 5674 5670 5667 5666 5664 5661 5658 5656 5653 5650 5648 5646 5642 5639 5636 5633 5629 5626 5622 5618 5614 5610 5606 5601 5597 5592 5587 5583 5578 5574 5570 5565 5561 5557 5552 5548 5543 5539
5680 5678 5676 5673 5670 5670 5669 5666 5663 5662 5661 5657 5654 5651 5649 5646 5644 5641 5638 5634 5631 5628 5624 5620 5616 5612 5608 5604 5599 5594 5590 5585 5580 5575 5570 5566 5561 5556 5551 5547 5542 5537 5532 5528
5676 5674 5672 5669 5667 5668 5664 5661 5659 5657 5654 5652 5649 5647 5644 5641 5638 5635 5632 5629 5626 5622 5618 5614 5610 5605 5601 5596 5592 5587 5582 5577 5572 5567 5562 5557 5552 5547 5541 5536 5531 5526 5521 5516
5671 5669 5667 5666 5665 5661 5658 5655 5653 5651 5649 5646 5643 5641 5638 5635 5632 5629 5626 5623 5619 5616 5612 5607 5603 5598 5593 5589 5584 5579 5574 5569 5564 5558 5553 5548 5542 5537 5531 5525 5520 5514 5509 5504
5666 5663 5660 5658 5658 5654 5651 5649 5647 5645 5642 5640 5637 5635 5632 5629 5626 5623 5620 5616 5613 5609 5604 5600 5595 5591 5586 5581 5576 5570 5565 5560 5554 5549 5544 5538 5532 5526 5520 5514 5508 5503 5497 5492
5658 5655 5653 5651 5650 5647 5645 5642 5640 5637 5635 5633 5630 5627 5624 5621 5618 5615 5612 5608 5605 5601 5596 5592 5587 5582 5577 5572 5567 5561 5556 5550 5545 5539 5534 5528 5522 5515 5509 5503 5496 5491 5485 5479
5650 5646 5644 5643 5641 5639 5638 5635 5632 5629 5627 5625 5622 5619 5616 5613 5610 5607 5604 5600 5596 5592 5588 5583 5578 5573 5568 5563 5557 5552 5546 5541 5535 5529 5523 5517 5511 5505 5498 5492 5486 5478 5473 5466